Location: Gipe Farm
(40.9466°N, 95.5370°W)
Time: 07:39:20
(UTC-05:00)

Daily predictions for brighter satellites

Satellite Brightness Start Highest point End
(mag) Time Altitude Azimuth Time Altitude Azimuth Time Altitude Azimuth
Cosmos 1346 Rocket 2.8 21:05:57 10° N 21:09:56 75° E 21:13:56 10° SSE
NOSS 3-2 (C) 4.0 21:04:09 10° SW 21:10:07 67° NW 21:16:43 10° NNE
Lacrosse 5 rocket 1.0 21:09:13 10° SW 21:12:47 89° W 21:16:26 10° NE
COSMOS 2455 2.9 21:10:57 10° SSW 21:16:58 84° ESE 21:23:01 10° NNE
CENTAUR R/B 2.6 21:11:32 10° S 21:17:14 51° ESE 21:23:41 10° NE
Molniya-1 2.0 21:16:00 10° SW 21:17:48 85° NW 21:19:22 10° NE
Cosmos 372 Rocket 4.5 21:18:57 10° SSE 21:23:38 37° ESE 21:28:18 10° NE
Envisat 3.2 21:22:09 10° S 21:27:13 78° WSW 21:32:19 10° NNW
Cosmos 1939 Rocket 2.9 21:24:22 10° SSE 21:28:30 83° E 21:32:38 10° N
Helios 1A 3.0 21:26:17 10° SSE 21:30:26 65° ENE 21:34:38 10° N
Cosmos 1825 2.8 21:29:13 10° SSE 21:32:41 35° E 21:36:10 10° NNE
Cosmos 2221 Rocket 3.7 21:28:34 10° N 21:32:57 57° E 21:37:21 10° SSE
SJ-11-01 4.5 21:36:49 10° S 21:41:33 77° WSW 21:46:16 10° NNW
Cosmos 1269 Rocket 4.3 21:38:17 10° N 21:43:28 53° ENE 21:47:51 14° SE
Cosmos 1125 Rocket 3.4 21:38:28 10° S 21:43:40 71° ESE 21:48:53 10° NNE
USA 186 4.1 21:41:46 10° SW 21:43:53 20° W 21:46:07 10° NW
Meteor 2-3 Rocket 4.5 21:40:03 10° SSW 21:45:39 56° WNW 21:51:13 10° N
Cosmos 1634 Rocket 4.2 21:43:38 10° N 21:49:57 77° W 21:56:15 10° S
Cosmos 1782 2.7 21:47:15 10° N 21:51:16 75° E 21:54:52 12° SSE
Cosmos 1943 Rocket 2.1 21:50:59 10° SSW 21:56:34 83° ESE 22:02:09 10° NNE
deb Kosmos-1763 4.1 21:52:53 10° NNW 21:56:40 75° ENE 21:59:17 19° SSE
Cosmos 158 Rocket 3.8 21:58:53 10° NNW 22:03:47 88° WSW 22:07:35 17° SSE
SAR-Lupe-4 3.6 22:01:43 15° S 22:04:34 79° WSW 22:08:10 10° NNW
Resurs 01 Rocket 4.3 22:02:13 10° SW 22:05:02 17° W 22:07:53 10° NW
Okean 1-7 3.5 22:00:57 10° NNW 22:05:20 63° W 22:09:39 10° S
Cosmos 1340 2.6 22:03:06 10° N 22:06:54 73° E 22:09:15 22° SSE
Cosmos 1862 3.2 22:09:35 17° S 22:12:34 64° E 22:16:30 10° NNE
Meteor 1-29 3.9 22:11:05 10° N 22:14:28 50° WNW 22:17:51 10° SSW
YAOGAN 6 4.1 22:12:17 10° SSW 22:15:41 34° W 22:19:05 10° NNW
CZ-4B DEB 4.0 22:13:27 14° SSW 22:15:41 35° W 22:18:24 10° NNW
NOAA 11 4.2 22:11:32 15° SSE 22:16:12 83° WSW 22:21:44 10° NNW
ISS -1.1 22:15:23 10° WNW 22:17:56 20° NNW 22:20:28 10° NNE
Cosmos 1867 4.2 22:12:55 10° NNW 22:18:09 44° NE 22:21:08 23° ESE
TRAILBLAZER 4.5 22:14:52 10° SSW 22:19:22 85° SE 22:23:58 10° NE
Cosmos 2279 Rocket 4.2 22:15:01 10° N 22:21:16 74° W 22:27:06 12° S
Cosmos 2344 3.5 22:14:32 10° SSW 22:22:10 78° ESE 22:30:34 10° NE
Terra 3.3 22:20:55 19° E 22:22:33 23° ENE 22:26:15 10° NNE
H-2A R/B 2.4 22:20:37 25° SE 22:23:32 51° ENE 22:28:40 10° N
Helios 1B rocket 4.1 22:20:29 10° N 22:24:15 35° WNW 22:27:59 10° SW
BREEZE-M DEB (TANK) 3.6 22:20:58 10° NW 22:24:16 62° NNE 22:33:59 15° ESE
Cosmos 2369 Rocket 4.0 22:21:19 10° WSW 22:26:24 34° WNW 22:31:34 10° N
ERS-1 Rocket 3.3 22:23:43 16° S 22:27:41 64° WSW 22:32:42 10° NNW
Cosmos 1606 3.9 22:25:18 10° NNW 22:28:49 38° W 22:31:47 13° SSW
GPS 2-04 Rocket1 4.0 22:26:59 10° WSW 22:29:52 21° SSW 22:29:53 21° SSW
Lacrosse 4 Rocket 1.9 22:29:34 10° NW 22:34:00 57° WSW 22:36:05 29° S
Cosmos 1733 Rocket 2.9 22:33:26 23° S 22:36:08 90° NE 22:40:29 10° N
Cosmos 1833 4.4 22:32:27 10° NNW 22:38:13 69° WSW 22:41:28 26° S
MetOp-B 4.4 22:35:11 20° S 22:38:54 65° WSW 22:44:15 10° NNW
ATLAS CENTAUR R/B 1.4 22:41:20 47° ESE 22:41:20 47° ESE 22:45:05 10° NE
Cosmos 1437 3.2 22:39:02 10° N 22:41:58 45° ENE 22:41:58 45° ENE
ATLAS 5 CENTAUR R/B 2.9 22:36:33 10° NW 22:42:29 55° WSW 22:46:13 25° S
Nimbus 7 Rocket 4.3 22:37:09 10° NNE 22:43:00 65° ESE 22:46:30 25° S
USA 215 3.2 22:40:49 28° SE 22:44:34 84° NE 22:51:10 10° NW
Cosmos 2297 Rocket 4.2 22:42:05 10° N 22:45:39 17° NE 22:48:21 12° E
SPOT 5 3.2 22:45:33 28° S 22:48:28 74° WSW 22:53:46 10° NNW
Cosmos 1656 Rocket 3.7 22:45:30 10° SSW 22:50:57 79° WNW 22:56:31 10° NNE
Lacrosse 5 rocket 4.3 22:50:19 10° WNW 22:52:28 15° NNW 22:54:41 10° N
ARGOS 3.6 22:51:40 24° S 22:54:49 56° W 23:00:06 10° NNW
Cosmos 1346 4.2 22:52:14 10° N 22:53:57 34° NNE 22:53:57 34° NNE
Sich 1 Rocket 3.6 22:56:05 52° SE 22:56:40 58° E 23:01:01 10° NNE
Meteor 2-20 4.4 22:54:05 25° S 22:57:51 86° E 23:04:00 10° N
Meteor 2-20 Rocket 4.4 22:56:47 33° SSE 22:59:36 70° E 23:05:42 10° NNE
Cosmos 1975 Rocket 3.9 22:58:25 10° N 23:02:33 36° ENE 23:02:42 35° E
CENTAUR R/B 4.2 23:02:33 10° WSW 23:08:09 34° NW 23:14:27 10° NNE
CARTOSAT-1 3.5 23:10:22 63° ESE 23:10:43 67° ENE 23:15:02 10° N
Cosmos 1655 Rocket 4.3 23:11:03 41° SE 23:12:21 47° E 23:18:17 10° NNE
Cosmos 1378 Rocket 3.4 23:09:06 10° N 23:13:34 88° E 23:14:05 70° SSE
Cosmos 2251 Rocket 3.4 23:08:25 10° NNW 23:13:40 82° WSW 23:14:57 52° S
Cosmos 1674 Rocket 4.2 23:09:43 10° NNW 23:13:53 48° W 23:15:02 37° SW
Cosmos 2026 Rocket 3.9 23:15:05 45° SSE 23:16:58 68° E 23:23:12 10° NNE
Okean 3 3.5 23:15:57 10° NNW 23:20:07 68° W 23:20:28 64° SW
IGS 5A 3.3 23:20:17 81° E 23:20:18 81° ENE 23:24:29 10° N
SPOT 1/Viking Rocket 4.2 23:20:11 33° SSW 23:22:06 48° W 23:27:08 10° NNW
DMSP B5D2-2 4.2 23:17:14 10° N 23:22:27 74° WNW 23:24:32 37° SSW
Meteor 1-20 Rocket 4.3 23:22:49 54° SE 23:23:45 62° E 23:29:22 10° NNE
H-2A R/B 2.2 23:27:42 57° NE 23:27:42 57° NE 23:31:27 10° N
CZ-2C R/B 4.4 23:24:44 10° NE 23:26:55 16° ENE 23:26:55 16° ENE
Meteor 1-25 Rocket 4.2 23:33:11 55° S 23:34:32 85° E 23:40:25 10° N
Cosmos 1417 Rocket 4.5 23:29:09 10° N 23:35:26 70° E 23:36:44 55° SE
Cosmos 2227 Rocket 2.7 23:30:45 10° NNW 23:36:11 46° ENE 23:37:06 42° E
CZ-4C R/B 4.5 23:31:45 10° NNW 23:37:20 25° NE 23:42:51 12° E
Milstar 3 3.8 23:33:27 10° WSW 23:41:16 33° SSW 23:41:16 33° SSW
S3M 4.0 23:37:21 10° N 23:43:26 62° E 23:44:18 56° ESE
Cosmos 1812 3.4 23:39:42 10° NNW 23:42:56 52° NW 23:42:56 52° NW
Cosmos 2219 3.6 23:39:23 10° NNW 23:44:59 54° WSW 23:45:59 48° SW
GEOS 3 Rocket 3.4 23:46:59 76° SSE 23:47:24 88° WSW 23:52:39 10° NW
ISS -0.6 23:53:48 10° NNW 23:55:20 13° N 23:56:52 10° NNE
